STARLINK-34107, 63960

Orbit data source: Space-Track

STARLINK-34107, 63960 is a payload satellite owned by SpaceX/Seattle (US) in LEO that was launched on Tue, 13 May 2025 UTC via an FALCON 9 launch vehicle from the Air Force Eastern Test Range (AFETR). Payload-class satellites include a variety of spacecraft equipped with specific instruments for various scientific and technological missions. These include communications satellites like Starlink; space stations such as the ISS; scientific satellites like the Hubble; Earth observation satellites from companies like Planet Labs, Umbra, and HawkEye 360; GPS; miniature CubeSats for education and research; and military/defense satellites.

Loading next visibility...
Identifier
63960, 2025-099J
Orbit
LEO
Country
Flag of USUS
Related business
Manufacturer
SpaceX/Seattle
Mission
Operational Commercial Communications
Bus & Motor
STARLINK V2MO, Unknown motor
Mass
575 kg wet, ~530 kg dry
Launch date (UTC)
2025-05-13 (7 months ago)
Launch vehicle
FALCON 9
Launch site
Air Force Eastern Test Range (AFETR)
Object type
Payload
Rocket body
Debris
Shape & HBR
Box + 2 Pan, 17.7 m
Radar Cross Section
36.964 m², Large (>1 m²)

Expand to show TLE details & history
Last TLE update: 19 hours ago

TLE from 19 hours ago
0 STARLINK-34107
1 63960U 25099J   25346.58523810  .00038018  00000-0  13846-2 0  9995
2 63960  43.0001 308.2451 0001351 276.4315  83.6383 15.27565870 34010
Epoch: 2025-12-12T14:02Z
TLE epoch observation values (Epoch: 2025-12-12T14:02:44.571Z)
Latitude
-0.00002°
Longitude
16.03462°
Altitude
482.764 km
Speed
7.626 km/s
True Right ascension
20h 32m 58s
True Declination
0° 00' 00"
Sunlit
Object was in daylight at epoch
Visualization orbit readout
Latitude
Unknown
Longitude
Unknown
Altitude
Unknown
Speed
Unknown
Apparent Right ascension
Unknown
Apparent Declination
Unknown
Sunlit
N/A
Visualization observer readout
Local Sidereal Time
07:33:28
Azimuth
Unknown
Elevation
Unknown
Doppler factor
Unknown
Orbital elements
Apogee altitude
485.964 km
Perigee altitude
484.109 km
Semi-major axis
6,863.174 km
Eccentricity
0.00014
Inclination
43.0001°
RAAN
308.2451°
Arg. of periapsis
276.4315°
True anomaly
83.65369°
Mean anomaly
83.6383°
Eccentric anomaly
83.64599°
Mean motion
3.81729 °/min
Orbital period
94.31 mins
BSTAR
0.0013846
Loading maneuver chart data...
Computing Atmospheric mass density...
Loading historical data...
Loading historical data...
Loading historical data...
Loading historical data...
Loading historical data...
Loading historical data...
Loading historical data...

Documentation

Showing up to 5 results
|